TAM4756 SBGL-SBFI

Flight info

Callsign TAM4756
Flight time 1h 45m
Altitude 36000
Route NAXOP UZ45 RAXIT DCT DIDOM
Aircraft A320/M-SDE3FGHIRWY/LB1

Departure

Time 2026-04-20 20:35
Airport Rio Galeão – Tom Jobim International Airport (SBGL)

Arrival

Time 2026-04-20 22:20
Airport Cataratas International Airport (SBFI)
Time Latitude Longitude Altitude Speed Heading
2026-04-20 20:16 -22.81459 -43.24819 41 ft 0 kts 75°
2026-04-20 20:25 -22.81461 -43.24826 41 ft 2 kts 75°
2026-04-20 20:26 -22.81465 -43.24842 41 ft 2 kts 75°
2026-04-20 20:26 -22.81465 -43.24858 40 ft 2 kts 99°
2026-04-20 20:26 -22.81462 -43.24874 40 ft 2 kts 116°
2026-04-20 20:26 -22.81453 -43.24887 40 ft 2 kts 140°
2026-04-20 20:27 -22.81440 -43.24895 40 ft 2 kts 163°
2026-04-20 20:27 -22.81427 -43.24897 40 ft 0 kts 182°
2026-04-20 20:29 -22.81432 -43.24897 40 ft 2 kts 187°
2026-04-20 20:29 -22.81454 -43.24919 40 ft 6 kts 248°
2026-04-20 20:29 -22.81463 -43.24982 38 ft 9 kts 275°
2026-04-20 20:29 -22.81434 -43.25049 37 ft 10 kts 305°
2026-04-20 20:30 -22.81391 -43.25109 37 ft 10 kts 317°
2026-04-20 20:30 -22.81343 -43.25167 37 ft 10 kts 306°
2026-04-20 20:30 -22.81297 -43.25237 35 ft 12 kts 306°
2026-04-20 20:30 -22.81233 -43.25314 32 ft 15 kts 319°
2026-04-20 20:31 -22.81138 -43.25370 30 ft 15 kts 341°
2026-04-20 20:31 -22.81033 -43.25383 30 ft 14 kts
2026-04-20 20:31 -22.80959 -43.25408 29 ft 12 kts 302°
2026-04-20 20:31 -22.80915 -43.25503 28 ft 15 kts 295°
2026-04-20 20:32 -22.80867 -43.25607 28 ft 15 kts 300°
2026-04-20 20:32 -22.80797 -43.25687 27 ft 15 kts 354°
2026-04-20 20:32 -22.80695 -43.25624 25 ft 17 kts 35°
2026-04-20 20:32 -22.80593 -43.25545 25 ft 17 kts 36°
2026-04-20 20:33 -22.80501 -43.25550 25 ft 14 kts 326°
2026-04-20 20:33 -22.80415 -43.25606 25 ft 14 kts 345°
2026-04-20 20:33 -22.80321 -43.25568 25 ft 15 kts 38°
2026-04-20 20:33 -22.80236 -43.25496 25 ft 14 kts 34°
2026-04-20 20:34 -22.80177 -43.25465 25 ft 9 kts 60°
2026-04-20 20:34 -22.80161 -43.25409 25 ft 2 kts 74°
2026-04-20 20:34 -22.80157 -43.25394 25 ft 10 kts 74°
2026-04-20 20:34 -22.80063 -43.25032 25 ft 87 kts 74°
2026-04-20 20:35 -22.79840 -43.24165 25 ft 149 kts 75°
2026-04-20 20:35 -22.79518 -43.22954 252 ft 178 kts 76°
2026-04-20 20:35 -22.79191 -43.21674 853 ft 179 kts 78°
2026-04-20 20:35 -22.78890 -43.20307 1225 ft 195 kts 79°
2026-04-20 20:36 -22.78584 -43.18816 1592 ft 212 kts 79°
2026-04-20 20:36 -22.78245 -43.17167 1900 ft 235 kts 79°
2026-04-20 20:36 -22.77876 -43.15401 2485 ft 246 kts 79°
2026-04-20 20:36 -22.77493 -43.13586 3214 ft 250 kts 78°
2026-04-20 20:37 -22.77102 -43.11749 3984 ft 253 kts 78°
2026-04-20 20:37 -22.76705 -43.09886 4730 ft 258 kts 78°
2026-04-20 20:37 -22.76342 -43.07980 5478 ft 262 kts 86°
2026-04-20 20:37 -22.76666 -43.06095 6275 ft 257 kts 124°
2026-04-20 20:38 -22.77887 -43.04836 7131 ft 246 kts 159°
2026-04-20 20:38 -22.79484 -43.04458 7873 ft 243 kts 185°
2026-04-20 20:38 -22.81111 -43.04879 8605 ft 242 kts 210°
2026-04-20 20:38 -22.82391 -43.06017 9326 ft 243 kts 233°
2026-04-20 20:39 -22.83331 -43.07535 9900 ft 252 kts 236°
2026-04-20 20:39 -22.84339 -43.09171 10293 ft 269 kts 235°
2026-04-20 20:39 -22.85426 -43.10909 10660 ft 287 kts 235°
2026-04-20 20:39 -22.86583 -43.12742 11119 ft 300 kts 234°
2026-04-20 20:40 -22.87772 -43.14620 11780 ft 304 kts 234°
2026-04-20 20:40 -22.88973 -43.16512 12465 ft 307 kts 234°
2026-04-20 20:40 -22.90172 -43.18399 13100 ft 310 kts 234°
2026-04-20 20:40 -22.91403 -43.20335 13707 ft 314 kts 233°
2026-04-20 20:41 -22.92650 -43.22298 14306 ft 318 kts 233°
2026-04-20 20:41 -22.93913 -43.24284 14875 ft 322 kts 233°
2026-04-20 20:41 -22.95190 -43.26292 15452 ft 325 kts 233°
2026-04-20 20:41 -22.96480 -43.28321 16014 ft 328 kts 233°
2026-04-20 20:42 -22.97781 -43.30370 16568 ft 331 kts 232°
2026-04-20 20:42 -22.99093 -43.32435 17095 ft 335 kts 232°
2026-04-20 20:42 -23.00419 -43.34520 17596 ft 338 kts 232°
2026-04-20 20:42 -23.01759 -43.36631 18098 ft 341 kts 232°
2026-04-20 20:43 -23.03111 -43.38757 18601 ft 344 kts 232°
2026-04-20 20:43 -23.04473 -43.40904 19085 ft 347 kts 232°
2026-04-20 20:43 -23.05844 -43.43068 19581 ft 349 kts 232°
2026-04-20 20:43 -23.07204 -43.45211 20056 ft 351 kts 232°
2026-04-20 20:44 -23.08594 -43.47406 20507 ft 354 kts 232°
2026-04-20 20:44 -23.09993 -43.49614 20993 ft 356 kts 232°
2026-04-20 20:44 -23.11398 -43.51837 21449 ft 358 kts 232°
2026-04-20 20:44 -23.12814 -43.54074 21898 ft 361 kts 232°
2026-04-20 20:45 -23.14240 -43.56330 22340 ft 363 kts 232°
2026-04-20 20:45 -23.15672 -43.58595 22805 ft 365 kts 232°
2026-04-20 20:45 -23.17112 -43.60874 23243 ft 368 kts 232°
2026-04-20 20:45 -23.18563 -43.63171 23689 ft 370 kts 232°
2026-04-20 20:46 -23.20024 -43.65487 24127 ft 372 kts 232°
2026-04-20 20:46 -23.21481 -43.67793 24513 ft 376 kts 232°
2026-04-20 20:46 -23.22962 -43.70143 24930 ft 378 kts 233°
2026-04-20 20:46 -23.24453 -43.72509 25361 ft 380 kts 233°
2026-04-20 20:47 -23.25950 -43.74887 25781 ft 383 kts 233°
2026-04-20 20:47 -23.27459 -43.77283 26177 ft 385 kts 233°
2026-04-20 20:47 -23.28979 -43.79697 26565 ft 388 kts 233°
2026-04-20 20:47 -23.30506 -43.82127 26973 ft 390 kts 233°
2026-04-20 20:48 -23.32041 -43.84568 27382 ft 392 kts 233°
2026-04-20 20:48 -23.33589 -43.87031 27785 ft 394 kts 233°
2026-04-20 20:48 -23.35140 -43.89500 28169 ft 396 kts 233°
2026-04-20 20:48 -23.36698 -43.91982 28549 ft 398 kts 233°
2026-04-20 20:49 -23.38263 -43.94476 28911 ft 400 kts 233°
2026-04-20 20:49 -23.39815 -43.96952 29229 ft 403 kts 233°
2026-04-20 20:49 -23.41397 -43.99478 29570 ft 405 kts 233°
2026-04-20 20:49 -23.42982 -44.02014 29929 ft 406 kts 233°
2026-04-20 20:50 -23.44569 -44.04554 30279 ft 407 kts 232°
2026-04-20 20:50 -23.46164 -44.07102 30587 ft 408 kts 232°
2026-04-20 20:50 -23.47738 -44.09682 30893 ft 411 kts 234°
2026-04-20 20:50 -23.49187 -44.12371 31224 ft 413 kts 237°
2026-04-20 20:51 -23.50491 -44.15165 31528 ft 416 kts 240°
2026-04-20 20:51 -23.51644 -44.18063 31809 ft 419 kts 244°
2026-04-20 20:51 -23.52641 -44.21060 32065 ft 423 kts 247°
2026-04-20 20:51 -23.53471 -44.24148 32325 ft 427 kts 250°
2026-04-20 20:52 -23.54199 -44.27287 32600 ft 428 kts 251°
2026-04-20 20:52 -23.54920 -44.30438 32849 ft 430 kts 250°
2026-04-20 20:52 -23.55639 -44.33602 33097 ft 431 kts 250°
2026-04-20 20:52 -23.56362 -44.36773 33381 ft 432 kts 250°
2026-04-20 20:53 -23.57077 -44.39906 33651 ft 433 kts 250°
2026-04-20 20:53 -23.57803 -44.43088 33942 ft 433 kts 250°
2026-04-20 20:53 -23.58525 -44.46265 34268 ft 432 kts 250°
2026-04-20 20:53 -23.59248 -44.49439 34572 ft 432 kts 250°
2026-04-20 20:54 -23.59968 -44.52610 34852 ft 431 kts 250°
2026-04-20 20:54 -23.60688 -44.55777 35116 ft 431 kts 250°
2026-04-20 20:54 -23.61408 -44.58945 35362 ft 431 kts 250°
2026-04-20 20:54 -23.62126 -44.62111 35591 ft 431 kts 250°
2026-04-20 20:55 -23.62843 -44.65278 35785 ft 431 kts 250°
2026-04-20 20:55 -23.63562 -44.68452 35936 ft 432 kts 250°
2026-04-20 20:55 -23.64971 -44.74669 36028 ft 438 kts 250°
2026-04-20 20:56 -23.66433 -44.81145 36037 ft 442 kts 250°
2026-04-20 20:56 -23.67897 -44.87662 36041 ft 443 kts 250°
2026-04-20 20:57 -23.69361 -44.94183 36048 ft 443 kts 250°
2026-04-20 20:57 -23.70826 -45.00715 36047 ft 444 kts 251°
2026-04-20 20:58 -23.72282 -45.07230 36049 ft 442 kts 251°
2026-04-20 20:58 -23.73726 -45.13703 36051 ft 443 kts 251°
2026-04-20 20:59 -23.75174 -45.20215 36049 ft 441 kts 251°
2026-04-20 20:59 -23.76618 -45.26712 36049 ft 442 kts 251°
2026-04-20 21:00 -23.78063 -45.33246 36055 ft 443 kts 251°
2026-04-20 21:00 -23.79502 -45.39784 36062 ft 443 kts 251°
2026-04-20 21:01 -23.80926 -45.46269 36070 ft 443 kts 251°
2026-04-20 21:01 -23.82361 -45.52808 36072 ft 443 kts 252°
2026-04-20 21:02 -23.83788 -45.59349 36070 ft 443 kts 251°
2026-04-20 21:02 -23.85217 -45.65892 36066 ft 442 kts 252°
2026-04-20 21:03 -23.86643 -45.72395 36057 ft 442 kts 252°
2026-04-20 21:03 -23.88071 -45.78923 36054 ft 443 kts 252°
2026-04-20 21:04 -23.89494 -45.85450 36048 ft 442 kts 252°
2026-04-20 21:04 -23.90914 -45.91980 36047 ft 442 kts 252°
2026-04-20 21:05 -23.92331 -45.98517 36045 ft 442 kts 252°
2026-04-20 21:05 -23.93734 -46.05002 36051 ft 442 kts 252°
2026-04-20 21:06 -23.95144 -46.11544 36052 ft 443 kts 252°
2026-04-20 21:06 -23.96551 -46.18080 36057 ft 442 kts 253°
2026-04-20 21:07 -23.97979 -46.24616 36061 ft 443 kts 251°
2026-04-20 21:07 -23.99820 -46.31007 36054 ft 442 kts 247°
2026-04-20 21:08 -24.01845 -46.37347 36045 ft 442 kts 248°
2026-04-20 21:08 -24.03870 -46.43695 36044 ft 443 kts 248°
2026-04-20 21:09 -24.05872 -46.49996 36044 ft 442 kts 248°
2026-04-20 21:09 -24.07886 -46.56338 36050 ft 442 kts 248°
2026-04-20 21:10 -24.09900 -46.62675 36061 ft 441 kts 248°
2026-04-20 21:10 -24.11902 -46.69005 36064 ft 442 kts 248°
2026-04-20 21:11 -24.13912 -46.75363 36067 ft 442 kts 249°
2026-04-20 21:11 -24.15924 -46.81731 36069 ft 444 kts 249°
2026-04-20 21:12 -24.17937 -46.88112 36075 ft 444 kts 249°
2026-04-20 21:12 -24.19943 -46.94491 36076 ft 443 kts 249°
2026-04-20 21:13 -24.21944 -47.00867 36071 ft 443 kts 249°
2026-04-20 21:13 -24.23926 -47.07193 36070 ft 442 kts 249°
2026-04-20 21:14 -24.25918 -47.13562 36059 ft 442 kts 249°
2026-04-20 21:14 -24.27831 -47.19957 36058 ft 442 kts 250°
2026-04-20 21:15 -24.29689 -47.26370 36057 ft 442 kts 250°
2026-04-20 21:15 -24.31550 -47.32782 36055 ft 442 kts 250°
2026-04-20 21:16 -24.33411 -47.39196 36055 ft 442 kts 250°
2026-04-20 21:16 -24.35255 -47.45561 36051 ft 441 kts 250°
2026-04-20 21:17 -24.37110 -47.51968 36058 ft 441 kts 250°
2026-04-20 21:17 -24.38957 -47.58363 36051 ft 440 kts 250°
2026-04-20 21:18 -24.40802 -47.64760 36053 ft 440 kts 250°
2026-04-20 21:18 -24.42423 -47.71249 36048 ft 442 kts 256°
2026-04-20 21:19 -24.43632 -47.77859 36043 ft 442 kts 257°
2026-04-20 21:20 -24.45389 -47.87730 36049 ft 442 kts 257°
2026-04-20 21:20 -24.46563 -47.94338 36049 ft 442 kts 257°
2026-04-20 21:21 -24.47734 -48.00953 36047 ft 442 kts 257°
2026-04-20 21:21 -24.48903 -48.07565 36052 ft 442 kts 257°
2026-04-20 21:22 -24.50067 -48.14175 36051 ft 441 kts 257°
2026-04-20 21:22 -24.51226 -48.20773 36055 ft 440 kts 257°
2026-04-20 21:23 -24.52382 -48.27360 36056 ft 440 kts 257°
2026-04-20 21:23 -24.53525 -48.33897 36061 ft 439 kts 257°
2026-04-20 21:24 -24.54670 -48.40463 36061 ft 438 kts 257°
2026-04-20 21:24 -24.55810 -48.47020 36066 ft 437 kts 257°
2026-04-20 21:25 -24.56949 -48.53576 36071 ft 438 kts 257°
2026-04-20 21:25 -24.58082 -48.60130 36081 ft 437 kts 257°
2026-04-20 21:26 -24.59204 -48.66637 36092 ft 436 kts 257°
2026-04-20 21:26 -24.60335 -48.73210 36100 ft 436 kts 257°
2026-04-20 21:27 -24.61458 -48.79747 36107 ft 436 kts 257°
2026-04-20 21:27 -24.62569 -48.86232 36113 ft 435 kts 257°
2026-04-20 21:28 -24.63680 -48.92748 36114 ft 434 kts 257°
2026-04-20 21:28 -24.64787 -48.99254 36112 ft 433 kts 257°
2026-04-20 21:29 -24.65889 -49.05741 36105 ft 432 kts 257°
2026-04-20 21:29 -24.66990 -49.12235 36102 ft 433 kts 257°
2026-04-20 21:30 -24.68087 -49.18732 36092 ft 433 kts 257°
2026-04-20 21:30 -24.69174 -49.25186 36085 ft 433 kts 257°
2026-04-20 21:31 -24.70265 -49.31680 36087 ft 432 kts 257°
2026-04-20 21:31 -24.71351 -49.38161 36096 ft 431 kts 257°
2026-04-20 21:32 -24.72432 -49.44635 36102 ft 431 kts 257°
2026-04-20 21:32 -24.73511 -49.51111 36112 ft 431 kts 257°
2026-04-20 21:33 -24.74586 -49.57585 36120 ft 431 kts 257°
2026-04-20 21:33 -24.75650 -49.64011 36136 ft 430 kts 257°
2026-04-20 21:34 -24.76722 -49.70502 36151 ft 430 kts 258°
2026-04-20 21:34 -24.77786 -49.76957 36160 ft 430 kts 258°
2026-04-20 21:35 -24.78847 -49.83416 36160 ft 429 kts 258°
2026-04-20 21:35 -24.79899 -49.89831 36161 ft 430 kts 258°
2026-04-20 21:36 -24.80954 -49.96289 36156 ft 429 kts 258°
2026-04-20 21:36 -24.82007 -50.02752 36161 ft 429 kts 258°
2026-04-20 21:37 -24.83056 -50.09211 36159 ft 429 kts 258°
2026-04-20 21:37 -24.84102 -50.15673 36161 ft 430 kts 258°
2026-04-20 21:38 -24.85146 -50.22137 36158 ft 430 kts 258°
2026-04-20 21:38 -24.86180 -50.28553 36157 ft 430 kts 258°
2026-04-20 21:39 -24.87219 -50.35015 36160 ft 429 kts 258°
2026-04-20 21:39 -24.88252 -50.41467 36150 ft 428 kts 258°
2026-04-20 21:40 -24.89283 -50.47923 36137 ft 429 kts 258°
2026-04-20 21:40 -24.90314 -50.54384 36137 ft 429 kts 258°
2026-04-20 21:41 -24.91339 -50.60844 36135 ft 428 kts 258°
2026-04-20 21:41 -24.92359 -50.67292 36139 ft 429 kts 258°
2026-04-20 21:42 -24.93381 -50.73754 36138 ft 429 kts 259°
2026-04-20 21:42 -24.94397 -50.80219 36132 ft 429 kts 258°
2026-04-20 21:43 -24.95412 -50.86691 36121 ft 430 kts 258°
2026-04-20 21:43 -24.96426 -50.93161 36098 ft 429 kts 258°
2026-04-20 21:44 -24.97429 -50.99584 36083 ft 429 kts 259°
2026-04-20 21:44 -24.98436 -51.06056 36076 ft 429 kts 258°
2026-04-20 21:45 -24.99439 -51.12517 36086 ft 428 kts 259°
2026-04-20 21:45 -25.00439 -51.18980 36107 ft 428 kts 259°
2026-04-20 21:46 -25.01435 -51.25437 36123 ft 427 kts 259°
2026-04-20 21:46 -25.02427 -51.31898 36133 ft 428 kts 259°
2026-04-20 21:47 -25.03412 -51.38319 36279 ft 428 kts 259°
2026-04-20 21:47 -25.03900 -51.41507 36916 ft 417 kts 258°
2026-04-20 21:47 -25.04370 -51.44608 37657 ft 406 kts 258°
2026-04-20 21:47 -25.04833 -51.47642 38086 ft 400 kts 258°
2026-04-20 21:48 -25.05295 -51.50672 38132 ft 403 kts 258°
2026-04-20 21:48 -25.06229 -51.56804 38138 ft 409 kts 258°
2026-04-20 21:49 -25.07174 -51.63019 38142 ft 414 kts 259°
2026-04-20 21:49 -25.08121 -51.69285 38135 ft 418 kts 259°
2026-04-20 21:50 -25.09078 -51.75624 38135 ft 419 kts 259°
2026-04-20 21:50 -25.10025 -51.81948 38135 ft 418 kts 259°
2026-04-20 21:51 -25.10975 -51.88284 38138 ft 419 kts 259°
2026-04-20 21:51 -25.11919 -51.94614 38130 ft 419 kts 259°
2026-04-20 21:52 -25.12861 -52.00941 38127 ft 418 kts 259°
2026-04-20 21:52 -25.13798 -52.07257 38126 ft 418 kts 259°
2026-04-20 21:53 -25.14732 -52.13577 38122 ft 418 kts 259°
2026-04-20 21:53 -25.15661 -52.19857 38117 ft 418 kts 260°
2026-04-20 21:54 -25.16592 -52.26187 38113 ft 418 kts 260°
2026-04-20 21:54 -25.17521 -52.32513 38113 ft 419 kts 260°
2026-04-20 21:55 -25.18448 -52.38860 38110 ft 420 kts 260°
2026-04-20 21:55 -25.19374 -52.45212 38110 ft 420 kts 260°
2026-04-20 21:56 -25.20296 -52.51569 38104 ft 420 kts 260°
2026-04-20 21:56 -25.21216 -52.57921 38096 ft 420 kts 260°
2026-04-20 21:57 -25.22127 -52.64232 38086 ft 420 kts 260°
2026-04-20 21:57 -25.23043 -52.70595 38084 ft 418 kts 260°
2026-04-20 21:57 -25.23496 -52.73748 37951 ft 411 kts 260°
2026-04-20 21:58 -25.23940 -52.76845 37333 ft 409 kts 260°
2026-04-20 21:58 -25.24384 -52.79948 36360 ft 413 kts 260°
2026-04-20 21:58 -25.24833 -52.83089 35299 ft 419 kts 260°
2026-04-20 21:58 -25.25287 -52.86268 34238 ft 424 kts 260°
2026-04-20 21:59 -25.25745 -52.89484 33137 ft 429 kts 260°
2026-04-20 21:59 -25.26207 -52.92736 32205 ft 431 kts 260°
2026-04-20 21:59 -25.26668 -52.95982 31588 ft 426 kts 260°
2026-04-20 21:59 -25.27122 -52.99190 30998 ft 422 kts 261°
2026-04-20 22:00 -25.27566 -53.02326 30378 ft 419 kts 260°
2026-04-20 22:00 -25.28010 -53.05484 29746 ft 416 kts 261°
2026-04-20 22:00 -25.28453 -53.08620 29101 ft 413 kts 261°
2026-04-20 22:00 -25.28890 -53.11731 28584 ft 409 kts 261°
2026-04-20 22:01 -25.29326 -53.14826 28105 ft 407 kts 261°
2026-04-20 22:01 -25.29736 -53.17900 27626 ft 404 kts 263°
2026-04-20 22:01 -25.30011 -53.20973 27146 ft 401 kts 265°
2026-04-20 22:01 -25.30222 -53.24026 26669 ft 398 kts 266°
2026-04-20 22:02 -25.30426 -53.27050 26188 ft 393 kts 266°
2026-04-20 22:02 -25.30626 -53.30042 25706 ft 390 kts 266°
2026-04-20 22:02 -25.30823 -53.33009 25225 ft 386 kts 266°
2026-04-20 22:02 -25.31018 -53.35947 24745 ft 383 kts 267°
2026-04-20 22:03 -25.31210 -53.38863 24264 ft 380 kts 267°
2026-04-20 22:03 -25.31401 -53.41757 23778 ft 377 kts 267°
2026-04-20 22:03 -25.31588 -53.44622 23289 ft 373 kts 267°
2026-04-20 22:03 -25.31775 -53.47454 22800 ft 369 kts 268°
2026-04-20 22:04 -25.31955 -53.50219 22315 ft 365 kts 268°
2026-04-20 22:04 -25.32135 -53.53003 21826 ft 363 kts 268°
2026-04-20 22:04 -25.32314 -53.55775 21329 ft 362 kts 268°
2026-04-20 22:04 -25.32492 -53.58538 20841 ft 360 kts 268°
2026-04-20 22:05 -25.32670 -53.61287 20354 ft 359 kts 268°
2026-04-20 22:05 -25.32847 -53.64028 19862 ft 358 kts 268°
2026-04-20 22:05 -25.33022 -53.66778 19369 ft 357 kts 269°
2026-04-20 22:05 -25.33194 -53.69474 18892 ft 356 kts 269°
2026-04-20 22:06 -25.33369 -53.72199 18409 ft 355 kts 269°
2026-04-20 22:06 -25.33541 -53.74908 17924 ft 354 kts 269°
2026-04-20 22:06 -25.33713 -53.77608 17439 ft 353 kts 269°
2026-04-20 22:06 -25.33881 -53.80298 16947 ft 351 kts 270°
2026-04-20 22:07 -25.34050 -53.82978 16466 ft 349 kts 269°
2026-04-20 22:07 -25.34218 -53.85646 15978 ft 348 kts 270°
2026-04-20 22:07 -25.34383 -53.88302 15493 ft 346 kts 270°
2026-04-20 22:07 -25.34547 -53.90948 15015 ft 345 kts 269°
2026-04-20 22:08 -25.34711 -53.93586 14536 ft 344 kts 269°
2026-04-20 22:08 -25.34876 -53.96215 14051 ft 343 kts 270°
2026-04-20 22:08 -25.35038 -53.98837 13570 ft 342 kts 270°
2026-04-20 22:08 -25.35200 -54.01448 13089 ft 340 kts 270°
2026-04-20 22:09 -25.35359 -54.04047 12621 ft 339 kts 269°
2026-04-20 22:09 -25.35515 -54.06603 12152 ft 337 kts 269°
2026-04-20 22:09 -25.35672 -54.09172 11702 ft 334 kts 269°
2026-04-20 22:09 -25.35828 -54.11729 11241 ft 331 kts 269°
2026-04-20 22:10 -25.35983 -54.14256 10780 ft 329 kts 269°
2026-04-20 22:10 -25.36136 -54.16766 10319 ft 326 kts 269°
2026-04-20 22:10 -25.36288 -54.19257 9851 ft 324 kts 269°
2026-04-20 22:10 -25.36437 -54.21729 9393 ft 322 kts 269°
2026-04-20 22:11 -25.36584 -54.24186 8926 ft 320 kts 269°
2026-04-20 22:11 -25.36730 -54.26630 8462 ft 319 kts 269°
2026-04-20 22:11 -25.36876 -54.29068 7976 ft 318 kts 269°
2026-04-20 22:11 -25.37019 -54.31462 7515 ft 317 kts 269°
2026-04-20 22:12 -25.37163 -54.33881 7039 ft 316 kts 269°
2026-04-20 22:12 -25.37307 -54.36296 6557 ft 315 kts 269°
2026-04-20 22:12 -25.37449 -54.38704 6082 ft 314 kts 269°
2026-04-20 22:12 -25.37590 -54.41109 5601 ft 314 kts 269°
2026-04-20 22:13 -25.37731 -54.43505 5175 ft 311 kts 269°
2026-04-20 22:13 -25.37870 -54.45851 4998 ft 300 kts 269°
2026-04-20 22:13 -25.38005 -54.48109 4857 ft 289 kts 269°
2026-04-20 22:13 -25.38133 -54.50285 4718 ft 278 kts 269°
2026-04-20 22:14 -25.38255 -54.52382 4579 ft 269 kts 269°
2026-04-20 22:14 -25.38374 -54.54411 4431 ft 260 kts 269°
2026-04-20 22:14 -25.38487 -54.56375 4281 ft 252 kts 269°
2026-04-20 22:14 -25.38684 -54.58269 4147 ft 246 kts 255°
2026-04-20 22:15 -25.39568 -54.59852 4005 ft 242 kts 222°
2026-04-20 22:15 -25.40972 -54.60754 3884 ft 233 kts 200°
2026-04-20 22:15 -25.42476 -54.61346 3761 ft 224 kts 197°
2026-04-20 22:15 -25.43937 -54.61894 3634 ft 217 kts 198°
2026-04-20 22:16 -25.45342 -54.62438 3506 ft 210 kts 198°
2026-04-20 22:16 -25.46686 -54.62974 3441 ft 196 kts 196°
2026-04-20 22:16 -25.47972 -54.63045 3350 ft 180 kts 155°
2026-04-20 22:16 -25.49001 -54.62324 3318 ft 173 kts 131°
2026-04-20 22:17 -25.49822 -54.61361 3268 ft 171 kts 124°
2026-04-20 22:17 -25.50587 -54.60350 3079 ft 170 kts 123°
2026-04-20 22:17 -25.51335 -54.59357 2863 ft 170 kts 124°
2026-04-20 22:17 -25.52099 -54.58358 2650 ft 170 kts 126°
2026-04-20 22:18 -25.52869 -54.57368 2436 ft 168 kts 127°
2026-04-20 22:18 -25.53606 -54.56426 2233 ft 156 kts 127°
2026-04-20 22:18 -25.54297 -54.55542 2018 ft 146 kts 127°
2026-04-20 22:18 -25.54938 -54.54718 1843 ft 144 kts 126°
2026-04-20 22:19 -25.55592 -54.53876 1667 ft 143 kts 127°
2026-04-20 22:19 -25.56241 -54.53037 1493 ft 143 kts 127°
2026-04-20 22:19 -25.56884 -54.52192 1321 ft 143 kts 128°
2026-04-20 22:19 -25.57538 -54.51360 1147 ft 143 kts 129°
2026-04-20 22:20 -25.58180 -54.50538 960 ft 142 kts 128°
2026-04-20 22:20 -25.58826 -54.49707 799 ft 139 kts 130°
2026-04-20 22:20 -25.59356 -54.49026 796 ft 91 kts 131°
2026-04-20 22:20 -25.59649 -54.48650 796 ft 43 kts 130°
2026-04-20 22:21 -25.59761 -54.48508 796 ft 10 kts 131°
2026-04-20 22:21 -25.59821 -54.48506 796 ft 10 kts 223°
2026-04-20 22:21 -25.59861 -54.48579 796 ft 11 kts 269°
2026-04-20 22:21 -25.59825 -54.48664 796 ft 13 kts 308°
2026-04-20 22:22 -25.59765 -54.48744 796 ft 13 kts 310°
2026-04-20 22:22 -25.59700 -54.48828 796 ft 14 kts 310°
2026-04-20 22:22 -25.59638 -54.48907 796 ft 12 kts 311°
2026-04-20 22:22 -25.59605 -54.48949 796 ft 3 kts 310°
2026-04-20 22:23 -25.59609 -54.48976 796 ft 5 kts 223°
2026-04-20 22:23 -25.59638 -54.49003 796 ft 4 kts 221°
2026-04-20 22:23 -25.59653 -54.49017 796 ft 1 kts 221°
2026-04-20 22:23 -25.59656 -54.49020 795 ft 0 kts 221°